Regional Weather Roundup
Issued by NWS

Home | Current Version | Previous Version | Text Only | Print | Product List | Glossary Off
Versions: 1 2 3 4 5 6 7 8 9 10 11 12 13 14 15 16 17 18 19 20 21 22 23 24 25 26 27 28 29 30 31 32 33 34 35 36 37 38 39 40 41 42 43 44 45 46 47 48 49 50

000
ASUS45 KCYS 211910
RWRWY

WYOMING REGIONAL WEATHER ROUNDUP
NATIONAL WEATHER SERVICE CHEYENNE WY
100 PM MDT MON JUL 21 2014

NOTE:  "FAIR" INDICATES FEW OR NO CLOUDS BELOW 12,000 FEET
WITH NO SIGNIFICANT WEATHER AND/OR OBSTRUCTIONS TO VISIBILITY.

WYZ001-212000-
YELLOWSTONE NATIONAL PARK

CITY           SKY/WX    TMP DP  RH WIND       PRES   REMARKS
LK YELLOWSTONE   N/A     65  45  48 SW12G23   30.31R
W YELLOWSTONE  NOT AVBL

$$
WYZ002>013-054>058-071-098>099-212000-
NORTHERN WYOMING

CITY           SKY/WX    TMP DP  RH WIND       PRES   REMARKS
JACKSON        MOSUNNY   79  43  27 SW13      30.19F
CODY           PTSUNNY   81  45  28 W9        30.04R
GREYBULL       MOSUNNY   92  42  17 NW9       29.94F
WORLAND        MOSUNNY   91  43  18 SW13      29.95F
SHERIDAN       PTSUNNY   86  51  29 VRB3      29.95R
BUFFALO        MOSUNNY   88  44  21 E7        30.02F
GILLETTE       MOSUNNY   91  45  20 W7G16     29.98S
HULETT         FAIR      86  50  28 MISG      29.98
NEWCASTLE      FAIR      93  36  13 W22G31    29.97

$$
WYZ014>020-022>026-101>103-212000-
CENTRAL WYOMING

CITY           SKY/WX    TMP DP  RH WIND       PRES   REMARKS
BIG PINEY      SUNNY     82  38  20 W16G26    30.26S
PINEDALE       MOCLDY    77  43  29 NW12G17   30.26S
DUBOIS         FAIR      75  36  23 W30G44    30.22S
LANDER         MOSUNNY   90  37  15 W13       30.09R
RIVERTON       MOSUNNY   88  38  17 W18       30.08F
CASPER         MOSUNNY   92  37  14 W18G26    30.08F
DOUGLAS        SUNNY     92  43  18 W18G25    30.07F

$$
WYZ021-027>030-104>119-212000-
SOUTHERN WYOMING

CITY           SKY/WX    TMP DP  RH WIND       PRES   REMARKS
EVANSTON       SUNNY     78  40  25 SW13G20   30.30S
KEMMERER       CLEAR     79  36  21 SW15G26   30.30S
ROCK SPRINGS   SUNNY     83  30  14 W14G29    30.25F
DIXON          FAIR      88  32  13 W14G26    30.28S
RAWLINS        MOSUNNY   87  31  13 SW28G38   30.24F
SARATOGA       FAIR      86  32  14 W23G32    30.29S
LARAMIE        MOSUNNY   79  37  22 W13G25    30.28F
CHEYENNE       MOSUNNY   88  39  17 W14G30    30.19F
TORRINGTON     SUNNY     96  47  18 SW14G24   30.01F HX  92
PINE BLUFFS    FAIR      91  37  15 W8G18     30.13S

$$



USA.gov is the U.S. government's official web portal to all federal, state and local government web resources and services.